TimeEST,TemperatureF,Dew PointF,Humidity,Sea Level PressureIn,VisibilityMPH,Wind Direction,Wind SpeedMPH,Gust SpeedMPH,PrecipitationIn,Events,Conditions,WindDirDegrees,DateUTC
12:56 AM,39.9,28.9,65,29.92,10.0,West,8.1,17.3,N/A,,Clear,280,2013-11-08 05:56:00
1:56 AM,39.9,28.0,63,29.93,10.0,West,9.2,-,N/A,,Clear,280,2013-11-08 06:56:00
2:56 AM,41.0,28.9,62,29.94,10.0,West,9.2,-,N/A,,Scattered Clouds,280,2013-11-08 07:56:00
3:56 AM,39.0,28.9,67,29.95,10.0,West,6.9,-,N/A,,Clear,270,2013-11-08 08:56:00
4:56 AM,39.0,28.0,65,29.97,10.0,West,8.1,-,N/A,,Partly Cloudy,280,2013-11-08 09:56:00
5:56 AM,37.9,28.0,68,29.97,10.0,West,8.1,-,N/A,,Clear,270,2013-11-08 10:56:00
6:56 AM,37.9,28.0,68,30.01,10.0,West,6.9,-,N/A,,Partly Cloudy,270,2013-11-08 11:56:00
7:56 AM,39.0,28.9,67,30.02,10.0,West,11.5,-,N/A,,Partly Cloudy,270,2013-11-08 12:56:00
8:56 AM,42.1,28.0,58,30.02,10.0,West,12.7,19.6,N/A,,Clear,280,2013-11-08 13:56:00
9:56 AM,44.1,26.1,49,30.02,10.0,WNW,16.1,25.3,N/A,,Clear,300,2013-11-08 14:56:00
10:56 AM,46.0,26.1,46,30.01,10.0,NW,15.0,21.9,N/A,,Scattered Clouds,320,2013-11-08 15:56:00
11:56 AM,48.0,26.1,42,30.00,10.0,WNW,18.4,25.3,N/A,,Mostly Cloudy,300,2013-11-08 16:56:00
12:56 PM,45.0,23.0,42,30.01,10.0,WNW,21.9,29.9,N/A,,Mostly Cloudy,300,2013-11-08 17:56:00
1:56 PM,46.9,24.1,41,30.02,10.0,WNW,15.0,27.6,N/A,,Mostly Cloudy,300,2013-11-08 18:56:00
2:56 PM,46.9,23.0,39,30.03,10.0,NW,16.1,27.6,N/A,,Mostly Cloudy,310,2013-11-08 19:56:00
3:56 PM,46.0,21.9,39,30.06,10.0,WNW,18.4,24.2,N/A,,Mostly Cloudy,300,2013-11-08 20:56:00
4:56 PM,42.1,25.0,51,30.09,10.0,NW,15.0,21.9,0.00,,Scattered Clouds,310,2013-11-08 21:56:00
5:56 PM,43.0,24.1,47,30.11,10.0,WNW,25.3,33.4,N/A,,Mostly Cloudy,300,2013-11-08 22:56:00
6:56 PM,42.1,24.1,49,30.14,10.0,WNW,20.7,28.8,N/A,,Clear,300,2013-11-08 23:56:00
7:56 PM,41.0,23.0,49,30.15,10.0,NW,17.3,21.9,N/A,,Clear,310,2013-11-09 00:56:00
8:56 PM,41.0,23.0,49,30.16,10.0,WNW,13.8,24.2,N/A,,Clear,300,2013-11-09 01:56:00
9:56 PM,39.9,21.9,49,30.17,10.0,WNW,15.0,24.2,N/A,,Clear,290,2013-11-09 02:56:00
10:56 PM,39.9,23.0,51,30.18,10.0,WNW,10.4,-,N/A,,Clear,290,2013-11-09 03:56:00
11:56 PM,39.0,23.0,53,30.19,10.0,West,13.8,-,N/A,,Clear,280,2013-11-09 04:56:00